DLH1390 LTFM-EDDF

Flight info

Callsign DLH1390
Flight time 2h 26m
Altitude 36000
Route TUDBU1D/35L TUDBU Q26 ETUBA NAVOD MOPUG ARSIN SUBEN AKINI T161 DEBHI DEBH1B
Aircraft A359/H-V/N

Departure

Time 2026-04-16 10:21
Airport İstanbul Airport (LTFM)

Arrival

Time 2026-04-16 12:47
Airport Frankfurt Main Airport (EDDF)
Time Latitude Longitude Altitude Speed Heading
2026-04-16 09:57 41.26724 28.74128 339 ft 0 kts 89°
2026-04-16 10:02 41.26724 28.74127 339 ft 0 kts 89°
2026-04-16 10:05 41.26724 28.74124 339 ft 2 kts 90°
2026-04-16 10:06 41.26724 28.74104 339 ft 2 kts 90°
2026-04-16 10:06 41.26724 28.74084 339 ft 1 kts 89°
2026-04-16 10:06 41.26724 28.74071 339 ft 2 kts 84°
2026-04-16 10:06 41.26720 28.74051 339 ft 2 kts 59°
2026-04-16 10:07 41.26710 28.74034 339 ft 2 kts 39°
2026-04-16 10:07 41.26697 28.74023 339 ft 2 kts 19°
2026-04-16 10:07 41.26683 28.74019 339 ft 0 kts
2026-04-16 10:07 41.26678 28.74019 339 ft 0 kts 359°
2026-04-16 10:10 41.26696 28.74018 339 ft 4 kts 359°
2026-04-16 10:11 41.26747 28.74017 339 ft 9 kts 359°
2026-04-16 10:11 41.26827 28.74012 339 ft 13 kts 346°
2026-04-16 10:11 41.26866 28.73906 339 ft 13 kts 272°
2026-04-16 10:11 41.26865 28.73771 339 ft 15 kts 267°
2026-04-16 10:12 41.26861 28.73623 339 ft 16 kts 269°
2026-04-16 10:12 41.26859 28.73462 338 ft 17 kts 270°
2026-04-16 10:12 41.26859 28.73286 339 ft 19 kts 269°
2026-04-16 10:12 41.26856 28.73122 339 ft 16 kts 268°
2026-04-16 10:13 41.26814 28.72992 339 ft 16 kts 188°
2026-04-16 10:13 41.26701 28.72990 338 ft 3 kts 181°
2026-04-16 10:13 41.26696 28.72967 338 ft 3 kts 298°
2026-04-16 10:13 41.26700 28.72957 338 ft 0 kts 294°
2026-04-16 10:14 41.26700 28.72956 338 ft 0 kts 288°
2026-04-16 10:17 41.26700 28.72953 338 ft 1 kts 288°
2026-04-16 10:17 41.26704 28.72934 339 ft 3 kts 278°
2026-04-16 10:18 41.26706 28.72889 338 ft 6 kts 271°
2026-04-16 10:18 41.26706 28.72805 338 ft 10 kts 268°
2026-04-16 10:18 41.26704 28.72686 339 ft 14 kts 269°
2026-04-16 10:18 41.26708 28.72552 339 ft 11 kts 298°
2026-04-16 10:19 41.26774 28.72514 339 ft 0 kts 359°
2026-04-16 10:20 41.26929 28.72513 339 ft 55 kts
2026-04-16 10:20 41.27578 28.72502 339 ft 122 kts 360°
2026-04-16 10:20 41.28613 28.72511 576 ft 154 kts
2026-04-16 10:21 41.29642 28.72625 1257 ft 156 kts
2026-04-16 10:21 41.30830 28.72810 1784 ft 184 kts 11°
2026-04-16 10:21 41.32173 28.72983 2559 ft 207 kts
2026-04-16 10:21 41.33639 28.72692 3540 ft 220 kts 354°
2026-04-16 10:22 41.35179 28.72514 4574 ft 230 kts
2026-04-16 10:22 41.36904 28.72521 5075 ft 269 kts
2026-04-16 10:22 41.38967 28.72182 5109 ft 326 kts 343°
2026-04-16 10:22 41.41121 28.71027 6128 ft 346 kts 335°
2026-04-16 10:23 41.43023 28.69121 7716 ft 350 kts 313°
2026-04-16 10:23 41.44517 28.66618 9178 ft 354 kts 309°
2026-04-16 10:23 41.46048 28.64044 10569 ft 361 kts 308°
2026-04-16 10:23 41.47666 28.61323 12024 ft 367 kts 308°
2026-04-16 10:24 41.49255 28.58648 13436 ft 372 kts 307°
2026-04-16 10:24 41.50898 28.55875 14794 ft 379 kts 307°
2026-04-16 10:24 41.52585 28.53029 16018 ft 388 kts 308°
2026-04-16 10:24 41.54257 28.50204 17195 ft 394 kts 308°
2026-04-16 10:25 41.55998 28.47261 18247 ft 402 kts 308°
2026-04-16 10:25 41.57729 28.44335 19295 ft 407 kts 308°
2026-04-16 10:25 41.59500 28.41337 20351 ft 411 kts 307°
2026-04-16 10:25 41.61343 28.38213 21248 ft 418 kts 307°
2026-04-16 10:26 41.63152 28.35143 22146 ft 422 kts 307°
2026-04-16 10:26 41.64975 28.32046 22967 ft 427 kts 306°
2026-04-16 10:26 41.66833 28.28892 23736 ft 432 kts 306°
2026-04-16 10:26 41.68729 28.25664 24255 ft 435 kts 306°
2026-04-16 10:27 41.70617 28.22447 24025 ft 439 kts 306°
2026-04-16 10:27 41.72492 28.19250 24148 ft 432 kts 306°
2026-04-16 10:27 41.74351 28.16075 24172 ft 435 kts 306°
2026-04-16 10:27 41.76253 28.12824 24110 ft 432 kts 306°
2026-04-16 10:28 41.78164 28.09555 24141 ft 433 kts 306°
2026-04-16 10:28 41.80022 28.06371 24142 ft 432 kts 306°
2026-04-16 10:28 41.81929 28.03101 24490 ft 443 kts 306°
2026-04-16 10:28 41.83814 27.99866 25634 ft 437 kts 306°
2026-04-16 10:29 41.85714 27.96601 26336 ft 441 kts 306°
2026-04-16 10:29 41.87635 27.93293 26811 ft 449 kts 306°
2026-04-16 10:29 41.89550 27.89999 27463 ft 451 kts 306°
2026-04-16 10:29 41.91463 27.86699 28151 ft 452 kts 306°
2026-04-16 10:30 41.93407 27.83342 28616 ft 456 kts 306°
2026-04-16 10:30 41.95359 27.79969 29096 ft 459 kts 305°
2026-04-16 10:30 41.97379 27.76637 29512 ft 464 kts 311°
2026-04-16 10:30 41.99670 27.73574 29857 ft 467 kts 312°
2026-04-16 10:31 42.01959 27.70465 30244 ft 469 kts 311°
2026-04-16 10:31 42.04248 27.67338 30585 ft 470 kts 311°
2026-04-16 10:31 42.06530 27.64219 31852 ft 450 kts 311°
2026-04-16 10:31 42.08635 27.61332 33121 ft 434 kts 311°
2026-04-16 10:32 42.12993 27.55341 33072 ft 454 kts 311°
2026-04-16 10:32 42.15185 27.52325 33433 ft 452 kts 311°
2026-04-16 10:32 42.17345 27.49355 34797 ft 432 kts 311°
2026-04-16 10:33 42.19434 27.46470 34964 ft 437 kts 311°
2026-04-16 10:33 42.21565 27.43529 35001 ft 443 kts 311°
2026-04-16 10:33 42.23725 27.40543 35294 ft 442 kts 311°
2026-04-16 10:33 42.25863 27.37587 35478 ft 444 kts 311°
2026-04-16 10:34 42.28047 27.34562 35648 ft 446 kts 311°
2026-04-16 10:34 42.30228 27.31540 35811 ft 448 kts 311°
2026-04-16 10:34 42.32396 27.28530 36001 ft 448 kts 311°
2026-04-16 10:34 42.34586 27.25491 36131 ft 450 kts 311°
2026-04-16 10:35 42.38966 27.19400 36132 ft 446 kts 311°
2026-04-16 10:35 42.43349 27.13290 36142 ft 448 kts 311°
2026-04-16 10:36 42.47740 27.07152 36131 ft 449 kts 311°
2026-04-16 10:36 42.52176 27.00944 36130 ft 449 kts 311°
2026-04-16 10:37 42.56554 26.94803 36129 ft 450 kts 311°
2026-04-16 10:37 42.60954 26.88613 36132 ft 450 kts 311°
2026-04-16 10:38 42.65331 26.82445 36130 ft 449 kts 311°
2026-04-16 10:38 42.69700 26.76275 36139 ft 450 kts 311°
2026-04-16 10:39 42.74047 26.70122 36131 ft 450 kts 311°
2026-04-16 10:39 42.78428 26.63908 36131 ft 449 kts 311°
2026-04-16 10:40 42.82544 26.57475 36122 ft 445 kts 301°
2026-04-16 10:40 42.85950 26.50209 36127 ft 446 kts 301°
2026-04-16 10:41 42.89369 26.43017 36124 ft 446 kts 301°
2026-04-16 10:41 42.92765 26.35867 36127 ft 446 kts 301°
2026-04-16 10:42 42.96199 26.28625 36133 ft 445 kts 301°
2026-04-16 10:42 42.99633 26.21363 36132 ft 445 kts 301°
2026-04-16 10:43 43.03088 26.14037 36128 ft 446 kts 301°
2026-04-16 10:43 43.06543 26.06696 36129 ft 446 kts 300°
2026-04-16 10:44 43.09975 25.99383 36125 ft 447 kts 300°
2026-04-16 10:44 43.13419 25.92029 36128 ft 445 kts 301°
2026-04-16 10:45 43.16835 25.84713 36125 ft 445 kts 301°
2026-04-16 10:45 43.20280 25.77318 36132 ft 445 kts 301°
2026-04-16 10:46 43.23714 25.69930 36132 ft 446 kts 301°
2026-04-16 10:46 43.27146 25.62524 36129 ft 447 kts 301°
2026-04-16 10:47 43.30524 25.55221 36124 ft 447 kts 301°
2026-04-16 10:47 43.33934 25.47825 36123 ft 448 kts 300°
2026-04-16 10:48 43.37339 25.40426 36121 ft 448 kts 301°
2026-04-16 10:48 43.40765 25.32957 36122 ft 446 kts 300°
2026-04-16 10:49 43.44163 25.25534 36125 ft 447 kts 300°
2026-04-16 10:49 43.47578 25.18057 36126 ft 449 kts 300°
2026-04-16 10:50 43.50966 25.10617 36124 ft 448 kts 300°
2026-04-16 10:50 43.54327 25.03216 36124 ft 447 kts 300°
2026-04-16 10:51 43.57703 24.95769 36124 ft 448 kts 300°
2026-04-16 10:51 43.61047 24.88369 36123 ft 449 kts 300°
2026-04-16 10:52 43.64379 24.80977 36121 ft 447 kts 300°
2026-04-16 10:52 43.67703 24.73586 36131 ft 449 kts 300°
2026-04-16 10:53 43.71024 24.66180 36131 ft 450 kts 300°
2026-04-16 10:53 43.74379 24.58682 36130 ft 449 kts 300°
2026-04-16 10:54 43.78243 24.51874 36137 ft 452 kts 312°
2026-04-16 10:54 43.82564 24.45515 36118 ft 452 kts 311°
2026-04-16 10:55 43.86852 24.39089 36121 ft 453 kts 311°
2026-04-16 10:55 43.91158 24.32608 36132 ft 453 kts 310°
2026-04-16 10:56 43.95446 24.26137 36131 ft 453 kts 310°
2026-04-16 10:56 43.99735 24.19650 36129 ft 451 kts 310°
2026-04-16 10:57 44.03962 24.13241 36128 ft 452 kts 310°
2026-04-16 10:57 44.08250 24.06724 36135 ft 453 kts 310°
2026-04-16 10:58 44.12539 24.00196 36139 ft 454 kts 311°
2026-04-16 10:58 44.16813 23.93671 36136 ft 453 kts 311°
2026-04-16 10:59 44.21097 23.87122 36139 ft 454 kts 311°
2026-04-16 10:59 44.25390 23.80535 36144 ft 453 kts 311°
2026-04-16 11:00 44.29643 23.73997 36151 ft 453 kts 311°
2026-04-16 11:00 44.33943 23.67373 36141 ft 454 kts 312°
2026-04-16 11:01 44.38201 23.60793 36124 ft 455 kts 313°
2026-04-16 11:01 44.42468 23.54193 36117 ft 456 kts 313°
2026-04-16 11:02 44.46754 23.47541 36115 ft 455 kts 313°
2026-04-16 11:02 44.51047 23.40869 36113 ft 457 kts 313°
2026-04-16 11:03 44.55319 23.34199 36110 ft 460 kts 314°
2026-04-16 11:04 44.61884 23.23943 36121 ft 465 kts 313°
2026-04-16 11:04 44.66278 23.17049 36113 ft 467 kts 314°
2026-04-16 11:05 44.70662 23.10158 36111 ft 471 kts 314°
2026-04-16 11:05 44.75080 23.03195 36100 ft 473 kts 314°
2026-04-16 11:06 44.79574 22.96093 36104 ft 474 kts 314°
2026-04-16 11:06 44.84032 22.89033 36100 ft 475 kts 314°
2026-04-16 11:07 44.88497 22.81940 36105 ft 477 kts 314°
2026-04-16 11:07 44.92961 22.74833 36105 ft 478 kts 314°
2026-04-16 11:08 44.97464 22.67646 36109 ft 479 kts 314°
2026-04-16 11:08 45.01920 22.60514 36113 ft 479 kts 314°
2026-04-16 11:09 45.06395 22.53334 36118 ft 478 kts 314°
2026-04-16 11:09 45.10846 22.46174 36118 ft 478 kts 314°
2026-04-16 11:10 45.15303 22.38987 36121 ft 477 kts 314°
2026-04-16 11:10 45.19745 22.31805 36119 ft 479 kts 313°
2026-04-16 11:11 45.24218 22.24554 36119 ft 478 kts 313°
2026-04-16 11:11 45.28595 22.17438 36122 ft 477 kts 313°
2026-04-16 11:12 45.32991 22.10277 36121 ft 478 kts 313°
2026-04-16 11:12 45.37343 22.03166 36121 ft 477 kts 313°
2026-04-16 11:13 45.41718 21.96002 36118 ft 476 kts 313°
2026-04-16 11:13 45.46074 21.88848 36244 ft 480 kts 313°
2026-04-16 11:13 45.48300 21.85187 35997 ft 472 kts 313°
2026-04-16 11:14 45.50427 21.81682 36221 ft 468 kts 313°
2026-04-16 11:14 45.52573 21.78145 36042 ft 475 kts 313°
2026-04-16 11:14 45.54769 21.74517 36131 ft 472 kts 313°
2026-04-16 11:15 45.59084 21.67378 36100 ft 473 kts 313°
2026-04-16 11:15 45.63385 21.60242 36102 ft 473 kts 313°
2026-04-16 11:16 45.67719 21.53033 36102 ft 472 kts 313°
2026-04-16 11:16 45.72003 21.45889 36108 ft 471 kts 313°
2026-04-16 11:17 45.76299 21.38708 36121 ft 471 kts 313°
2026-04-16 11:17 45.80604 21.31492 36117 ft 471 kts 312°
2026-04-16 11:18 45.84883 21.24299 36111 ft 471 kts 312°
2026-04-16 11:18 45.89150 21.17110 36112 ft 471 kts 312°
2026-04-16 11:19 45.93444 21.09857 36108 ft 471 kts 311°
2026-04-16 11:19 45.97705 21.02641 36114 ft 470 kts 311°
2026-04-16 11:20 46.01992 20.95359 36108 ft 470 kts 311°
2026-04-16 11:20 46.06266 20.88082 36108 ft 469 kts 311°
2026-04-16 11:21 46.10550 20.80769 36106 ft 469 kts 311°
2026-04-16 11:21 46.14900 20.73323 36110 ft 469 kts 311°
2026-04-16 11:22 46.18568 20.65095 36134 ft 472 kts 300°
2026-04-16 11:22 46.21829 20.56467 36119 ft 472 kts 300°
2026-04-16 11:23 46.25091 20.47861 36120 ft 471 kts 301°
2026-04-16 11:23 46.28350 20.39238 36126 ft 471 kts 301°
2026-04-16 11:24 46.31604 20.30606 36126 ft 471 kts 300°
2026-04-16 11:24 46.34850 20.21962 36129 ft 471 kts 300°
2026-04-16 11:25 46.38131 20.13201 36136 ft 470 kts 300°
2026-04-16 11:25 46.41350 20.04575 36137 ft 469 kts 300°
2026-04-16 11:26 46.44567 19.95931 36134 ft 468 kts 300°
2026-04-16 11:26 46.47808 19.87190 36141 ft 469 kts 300°
2026-04-16 11:27 46.51043 19.78439 36139 ft 468 kts 300°
2026-04-16 11:27 46.54217 19.69824 36141 ft 468 kts 300°
2026-04-16 11:28 46.57420 19.61101 36142 ft 467 kts 299°
2026-04-16 11:28 46.60599 19.52417 36140 ft 467 kts 299°
2026-04-16 11:29 46.63796 19.43657 36142 ft 467 kts 299°
2026-04-16 11:29 46.66954 19.34970 36138 ft 466 kts 298°
2026-04-16 11:30 46.70116 19.26248 36135 ft 466 kts 298°
2026-04-16 11:30 46.73273 19.17513 36134 ft 465 kts 298°
2026-04-16 11:31 46.76370 19.08911 36133 ft 465 kts 298°
2026-04-16 11:31 46.79490 19.00223 36136 ft 464 kts 298°
2026-04-16 11:32 46.82594 18.91548 36136 ft 465 kts 298°
2026-04-16 11:32 46.85706 18.82820 36147 ft 463 kts 298°
2026-04-16 11:33 46.88796 18.74128 36154 ft 463 kts 298°
2026-04-16 11:33 46.91877 18.65431 36137 ft 464 kts 298°
2026-04-16 11:34 46.94964 18.56691 36140 ft 463 kts 298°
2026-04-16 11:34 46.98037 18.47962 36140 ft 463 kts 298°
2026-04-16 11:35 47.01088 18.39261 36138 ft 462 kts 298°
2026-04-16 11:35 47.04118 18.30597 36147 ft 462 kts 297°
2026-04-16 11:36 47.07132 18.21950 36157 ft 462 kts 297°
2026-04-16 11:36 47.10148 18.13267 36149 ft 461 kts 297°
2026-04-16 11:37 47.13155 18.04580 36157 ft 462 kts 297°
2026-04-16 11:37 47.16187 17.95793 36160 ft 461 kts 297°
2026-04-16 11:38 47.19199 17.87036 36158 ft 460 kts 297°
2026-04-16 11:38 47.22185 17.78322 36166 ft 460 kts 297°
2026-04-16 11:39 47.25178 17.69561 36174 ft 459 kts 297°
2026-04-16 11:39 47.28150 17.60832 36180 ft 459 kts 296°
2026-04-16 11:40 47.31094 17.52159 36178 ft 458 kts 296°
2026-04-16 11:40 47.34037 17.43453 36180 ft 458 kts 296°
2026-04-16 11:41 47.36935 17.34857 36237 ft 456 kts 296°
2026-04-16 11:41 47.39885 17.26075 36144 ft 457 kts 296°
2026-04-16 11:42 47.42762 17.17481 36199 ft 455 kts 295°
2026-04-16 11:42 47.44200 17.13176 35908 ft 456 kts 295°
2026-04-16 11:42 47.45645 17.08842 36178 ft 451 kts 295°
2026-04-16 11:43 47.48540 17.00138 36152 ft 460 kts 295°
2026-04-16 11:43 47.51415 16.91463 36173 ft 459 kts 295°
2026-04-16 11:44 47.54250 16.82881 36174 ft 456 kts 295°
2026-04-16 11:44 47.57093 16.74078 36176 ft 455 kts 292°
2026-04-16 11:45 47.59541 16.65062 36183 ft 455 kts 291°
2026-04-16 11:45 47.61971 16.56120 36182 ft 454 kts 291°
2026-04-16 11:46 47.64391 16.47187 36178 ft 455 kts 291°
2026-04-16 11:46 47.66794 16.38286 36176 ft 454 kts 291°
2026-04-16 11:47 47.69190 16.29376 36186 ft 453 kts 290°
2026-04-16 11:47 47.71585 16.20437 36195 ft 454 kts 290°
2026-04-16 11:48 47.73958 16.11544 36193 ft 451 kts 290°
2026-04-16 11:48 47.76305 16.02712 36188 ft 451 kts 290°
2026-04-16 11:49 47.78669 15.93788 36196 ft 452 kts 290°
2026-04-16 11:49 47.81008 15.84921 36200 ft 452 kts 290°
2026-04-16 11:50 47.83380 15.75899 36195 ft 452 kts 290°
2026-04-16 11:50 47.85733 15.66906 36188 ft 452 kts 290°
2026-04-16 11:51 47.88067 15.57965 36210 ft 451 kts 290°
2026-04-16 11:51 47.90401 15.48978 36204 ft 450 kts 290°
2026-04-16 11:52 47.92652 15.40274 36196 ft 450 kts 290°
2026-04-16 11:52 47.94931 15.31432 36200 ft 451 kts 289°
2026-04-16 11:53 47.97224 15.22509 36211 ft 450 kts 289°
2026-04-16 11:53 47.99512 15.13561 36219 ft 451 kts 289°
2026-04-16 11:54 48.01791 15.04619 36230 ft 452 kts 289°
2026-04-16 11:54 48.04081 14.95594 36228 ft 450 kts 289°
2026-04-16 11:55 48.06358 14.86584 36232 ft 449 kts 289°
2026-04-16 11:55 48.08618 14.77606 36231 ft 449 kts 289°
2026-04-16 11:56 48.10871 14.68620 36232 ft 448 kts 289°
2026-04-16 11:56 48.13065 14.59837 36235 ft 450 kts 289°
2026-04-16 11:57 48.15241 14.51093 36232 ft 449 kts 289°
2026-04-16 11:57 48.17435 14.42241 36229 ft 449 kts 289°
2026-04-16 11:58 48.19596 14.33484 36227 ft 449 kts 288°
2026-04-16 11:58 48.21756 14.24700 36238 ft 448 kts 288°
2026-04-16 11:59 48.23910 14.15907 36239 ft 447 kts 288°
2026-04-16 11:59 48.26068 14.07061 36242 ft 447 kts 288°
2026-04-16 12:00 48.28198 13.98298 36232 ft 447 kts 288°
2026-04-16 12:00 48.30324 13.89508 36222 ft 446 kts 288°
2026-04-16 12:01 48.32448 13.80696 36216 ft 447 kts 288°
2026-04-16 12:01 48.34559 13.71907 36221 ft 447 kts 288°
2026-04-16 12:02 48.37716 13.58693 36216 ft 446 kts 288°
2026-04-16 12:02 48.39832 13.49793 36225 ft 445 kts 288°
2026-04-16 12:03 48.41906 13.41030 36242 ft 445 kts 288°
2026-04-16 12:03 48.44007 13.32216 36246 ft 445 kts 289°
2026-04-16 12:04 48.46333 13.23494 36242 ft 445 kts 289°
2026-04-16 12:04 48.48629 13.14792 36250 ft 445 kts 289°
2026-04-16 12:05 48.50909 13.06112 36250 ft 444 kts 289°
2026-04-16 12:05 48.53182 12.97426 36247 ft 444 kts 289°
2026-04-16 12:06 48.55452 12.88716 36245 ft 444 kts 290°
2026-04-16 12:06 48.57697 12.80069 36235 ft 444 kts 290°
2026-04-16 12:07 48.59959 12.71327 36233 ft 445 kts 290°
2026-04-16 12:07 48.62204 12.62617 36231 ft 444 kts 290°
2026-04-16 12:08 48.64442 12.53898 36231 ft 445 kts 290°
2026-04-16 12:08 48.66688 12.45117 36231 ft 444 kts 290°
2026-04-16 12:09 48.68913 12.36382 36231 ft 445 kts 290°
2026-04-16 12:09 48.71175 12.27468 36235 ft 445 kts 290°
2026-04-16 12:10 48.73383 12.18737 36235 ft 445 kts 290°
2026-04-16 12:10 48.75329 12.09869 36221 ft 444 kts 279°
2026-04-16 12:11 48.76266 12.00621 36234 ft 445 kts 279°
2026-04-16 12:11 48.77277 11.91147 36236 ft 445 kts 279°
2026-04-16 12:12 48.78263 11.81921 36236 ft 444 kts 279°
2026-04-16 12:12 48.79242 11.72687 36238 ft 445 kts 279°
2026-04-16 12:13 48.80222 11.63380 36242 ft 445 kts 279°
2026-04-16 12:13 48.81201 11.53951 35924 ft 446 kts 279°
2026-04-16 12:14 48.81678 11.49337 35712 ft 441 kts 279°
2026-04-16 12:14 48.82154 11.44708 35500 ft 439 kts 280°
2026-04-16 12:14 48.82633 11.40028 35283 ft 436 kts 280°
2026-04-16 12:14 48.83093 11.35522 35069 ft 435 kts 280°
2026-04-16 12:15 48.83555 11.30968 34859 ft 433 kts 279°
2026-04-16 12:15 48.84027 11.26453 34610 ft 431 kts 282°
2026-04-16 12:15 48.85039 11.22184 34308 ft 427 kts 298°
2026-04-16 12:15 48.86837 11.18592 34044 ft 426 kts 314°
2026-04-16 12:16 48.89048 11.15558 33804 ft 426 kts 316°
2026-04-16 12:16 48.91224 11.12542 33537 ft 424 kts 316°
2026-04-16 12:16 48.93404 11.09508 33264 ft 422 kts 316°
2026-04-16 12:16 48.95549 11.06516 32994 ft 420 kts 316°
2026-04-16 12:17 48.97683 11.03530 32720 ft 416 kts 316°
2026-04-16 12:17 48.99825 11.00528 32442 ft 414 kts 316°
2026-04-16 12:17 49.01948 10.97550 32167 ft 413 kts 316°
2026-04-16 12:17 49.04072 10.94564 31888 ft 410 kts 316°
2026-04-16 12:18 49.06166 10.91620 31610 ft 407 kts 316°
2026-04-16 12:18 49.08225 10.88722 31333 ft 405 kts 316°
2026-04-16 12:18 49.10292 10.85802 31037 ft 405 kts 316°
2026-04-16 12:18 49.12435 10.82771 30406 ft 431 kts 316°
2026-04-16 12:19 49.14679 10.79594 29844 ft 453 kts 316°
2026-04-16 12:19 49.17089 10.76179 29224 ft 464 kts 316°
2026-04-16 12:19 49.19409 10.72889 28547 ft 455 kts 316°
2026-04-16 12:19 49.21603 10.69492 27893 ft 446 kts 313°
2026-04-16 12:20 49.23744 10.66116 27276 ft 439 kts 313°
2026-04-16 12:20 49.25863 10.62774 26725 ft 432 kts 313°
2026-04-16 12:20 49.27950 10.59482 26216 ft 430 kts 313°
2026-04-16 12:20 49.30039 10.56181 25717 ft 430 kts 313°
2026-04-16 12:21 49.32093 10.52934 25211 ft 427 kts 313°
2026-04-16 12:21 49.34161 10.49661 24666 ft 424 kts 313°
2026-04-16 12:21 49.36170 10.46361 24189 ft 417 kts 308°
2026-04-16 12:21 49.37849 10.42744 24014 ft 415 kts 305°
2026-04-16 12:22 49.39516 10.39106 23826 ft 414 kts 304°
2026-04-16 12:22 49.41162 10.35505 23180 ft 407 kts 304°
2026-04-16 12:22 49.42794 10.31925 22120 ft 409 kts 304°
2026-04-16 12:22 49.44430 10.28333 21304 ft 405 kts 304°
2026-04-16 12:23 49.46024 10.24827 20561 ft 400 kts 304°
2026-04-16 12:23 49.47623 10.21307 19759 ft 396 kts 304°
2026-04-16 12:23 49.49200 10.17832 18966 ft 393 kts 304°
2026-04-16 12:23 49.50760 10.14387 18204 ft 390 kts 304°
2026-04-16 12:24 49.52280 10.11027 17479 ft 386 kts 304°
2026-04-16 12:24 49.53766 10.07741 16747 ft 384 kts 304°
2026-04-16 12:24 49.55304 10.04331 16002 ft 380 kts 304°
2026-04-16 12:24 49.56801 10.01009 15268 ft 378 kts 304°
2026-04-16 12:25 49.58296 9.97687 14560 ft 374 kts 304°
2026-04-16 12:25 49.59784 9.94376 13894 ft 370 kts 304°
2026-04-16 12:25 49.61240 9.91133 13206 ft 367 kts 304°
2026-04-16 12:25 49.62667 9.87948 12483 ft 365 kts 304°
2026-04-16 12:26 49.64116 9.84715 11794 ft 362 kts 304°
2026-04-16 12:26 49.65541 9.81528 11117 ft 359 kts 304°
2026-04-16 12:26 49.66980 9.78308 10401 ft 358 kts 304°
2026-04-16 12:26 49.68399 9.75128 9719 ft 355 kts 304°
2026-04-16 12:27 49.69815 9.71952 9075 ft 352 kts 305°
2026-04-16 12:27 49.71192 9.68858 8460 ft 348 kts 304°
2026-04-16 12:27 49.72563 9.65775 7827 ft 345 kts 304°
2026-04-16 12:27 49.73909 9.62745 7236 ft 348 kts 305°
2026-04-16 12:28 49.75279 9.59656 7227 ft 343 kts 305°
2026-04-16 12:28 49.76668 9.56520 7263 ft 344 kts 304°
2026-04-16 12:28 49.78057 9.53381 7132 ft 346 kts 304°
2026-04-16 12:28 49.79396 9.50351 7166 ft 342 kts 304°
2026-04-16 12:29 49.80760 9.47259 7268 ft 344 kts 304°
2026-04-16 12:29 49.82118 9.44180 7149 ft 343 kts 304°
2026-04-16 12:29 49.83448 9.41158 7244 ft 343 kts 304°
2026-04-16 12:29 49.84821 9.38061 7192 ft 344 kts 307°
2026-04-16 12:30 49.86577 9.35508 7009 ft 337 kts 327°
2026-04-16 12:30 49.88771 9.34091 6198 ft 342 kts 347°
2026-04-16 12:30 49.91142 9.33967 5498 ft 343 kts
2026-04-16 12:30 49.93471 9.34611 4998 ft 344 kts 12°
2026-04-16 12:31 49.95797 9.35579 5007 ft 334 kts 15°
2026-04-16 12:31 49.97972 9.36624 4996 ft 316 kts 17°
2026-04-16 12:31 50.00017 9.37674 4945 ft 299 kts 17°
2026-04-16 12:31 50.01954 9.38699 4992 ft 281 kts 18°
2026-04-16 12:32 50.03773 9.39675 4952 ft 269 kts 18°
2026-04-16 12:32 50.05547 9.40632 4983 ft 267 kts 18°
2026-04-16 12:32 50.07298 9.41581 4973 ft 267 kts 18°
2026-04-16 12:32 50.09106 9.42565 4969 ft 267 kts 18°
2026-04-16 12:33 50.10858 9.43521 4983 ft 267 kts 18°
2026-04-16 12:33 50.12627 9.44486 4973 ft 267 kts 18°
2026-04-16 12:33 50.14394 9.45446 4981 ft 266 kts 16°
2026-04-16 12:33 50.16260 9.45693 4972 ft 264 kts 348°
2026-04-16 12:34 50.18013 9.44807 4989 ft 263 kts 337°
2026-04-16 12:34 50.19783 9.43804 4969 ft 264 kts 339°
2026-04-16 12:34 50.21500 9.42843 4970 ft 263 kts 338°
2026-04-16 12:34 50.23072 9.41327 4963 ft 261 kts 312°
2026-04-16 12:35 50.23962 9.38824 4976 ft 261 kts 283°
2026-04-16 12:35 50.23989 9.36003 4984 ft 262 kts 259°
2026-04-16 12:35 50.23402 9.33273 4983 ft 263 kts 249°
2026-04-16 12:35 50.22763 9.30677 4960 ft 253 kts 250°
2026-04-16 12:36 50.22159 9.28087 4974 ft 251 kts 250°
2026-04-16 12:36 50.21557 9.25492 4974 ft 251 kts 251°
2026-04-16 12:36 50.20952 9.22885 4970 ft 251 kts 250°
2026-04-16 12:36 50.20353 9.20298 4978 ft 251 kts 250°
2026-04-16 12:37 50.19760 9.17744 4970 ft 249 kts 250°
2026-04-16 12:37 50.19167 9.15189 4974 ft 250 kts 250°
2026-04-16 12:37 50.18568 9.12610 4980 ft 251 kts 250°
2026-04-16 12:37 50.17954 9.09967 4967 ft 252 kts 250°
2026-04-16 12:38 50.17360 9.07416 4971 ft 249 kts 250°
2026-04-16 12:38 50.16793 9.04982 4952 ft 234 kts 250°
2026-04-16 12:38 50.16238 9.02603 4969 ft 230 kts 250°
2026-04-16 12:38 50.15694 9.00272 4957 ft 219 kts 250°
2026-04-16 12:39 50.15191 8.98122 4943 ft 201 kts 250°
2026-04-16 12:39 50.14732 8.96151 4880 ft 186 kts 251°
2026-04-16 12:39 50.14303 8.94324 5047 ft 174 kts 251°
2026-04-16 12:39 50.13910 8.92651 5014 ft 157 kts 251°
2026-04-16 12:40 50.13552 8.91128 4908 ft 143 kts 250°
2026-04-16 12:40 50.13207 8.89662 4990 ft 145 kts 250°
2026-04-16 12:40 50.12859 8.88183 4965 ft 144 kts 250°
2026-04-16 12:40 50.12514 8.86716 4983 ft 144 kts 251°
2026-04-16 12:41 50.12163 8.85229 4852 ft 145 kts 251°
2026-04-16 12:41 50.11819 8.83769 4649 ft 143 kts 251°
2026-04-16 12:41 50.11478 8.82323 4459 ft 142 kts 250°
2026-04-16 12:41 50.11134 8.80871 4268 ft 141 kts 250°
2026-04-16 12:42 50.10794 8.79429 4072 ft 142 kts 250°
2026-04-16 12:42 50.10451 8.77983 3869 ft 142 kts 250°
2026-04-16 12:42 50.10107 8.76527 3663 ft 143 kts 250°
2026-04-16 12:42 50.09765 8.75089 3466 ft 142 kts 250°
2026-04-16 12:43 50.09423 8.73648 3262 ft 142 kts 250°
2026-04-16 12:43 50.09079 8.72201 3052 ft 141 kts 250°
2026-04-16 12:43 50.08741 8.70778 2847 ft 141 kts 250°
2026-04-16 12:43 50.08390 8.69300 2639 ft 141 kts 250°
2026-04-16 12:44 50.08050 8.67872 2438 ft 140 kts 249°
2026-04-16 12:44 50.07710 8.66448 2237 ft 140 kts 250°
2026-04-16 12:44 50.07367 8.65015 2025 ft 140 kts 249°
2026-04-16 12:44 50.07038 8.63621 1832 ft 138 kts 250°
2026-04-16 12:45 50.06701 8.62206 1635 ft 137 kts 250°
2026-04-16 12:45 50.06366 8.60810 1442 ft 138 kts 250°
2026-04-16 12:45 50.06037 8.59426 1249 ft 136 kts 249°
2026-04-16 12:45 50.05707 8.58055 1061 ft 136 kts 251°
2026-04-16 12:46 50.05377 8.56674 871 ft 136 kts 249°
2026-04-16 12:46 50.05040 8.55298 668 ft 135 kts 249°
2026-04-16 12:46 50.04720 8.53916 498 ft 135 kts 249°
2026-04-16 12:46 50.04383 8.52558 382 ft 131 kts 253°
2026-04-16 12:47 50.04110 8.51370 368 ft 92 kts 248°
2026-04-16 12:47 50.04019 8.51066 365 ft 7 kts 210°
2026-04-16 12:47 50.03938 8.50956 363 ft 17 kts 223°
2026-04-16 12:47 50.03839 8.50836 361 ft 17 kts 203°
2026-04-16 12:48 50.03763 8.50937 363 ft 15 kts 120°
2026-04-16 12:48 50.03716 8.51084 364 ft 16 kts 116°
2026-04-16 12:48 50.03662 8.51253 364 ft 18 kts 117°
2026-04-16 12:48 50.03601 8.51448 361 ft 22 kts 117°
2026-04-16 12:49 50.03530 8.51670 360 ft 23 kts 117°
2026-04-16 12:49 50.03519 8.51917 359 ft 25 kts 82°
2026-04-16 12:49 50.03516 8.52148 352 ft 21 kts 137°
2026-04-16 12:49 50.03375 8.52146 349 ft 16 kts 186°
2026-04-16 12:50 50.03319 8.52272 345 ft 15 kts 140°
2026-04-16 12:50 50.03265 8.52418 343 ft 16 kts 90°
2026-04-16 12:50 50.03266 8.52604 343 ft 18 kts 90°
2026-04-16 12:50 50.03295 8.52799 343 ft 18 kts 70°
2026-04-16 12:51 50.03342 8.52996 344 ft 20 kts 70°
2026-04-16 12:51 50.03393 8.53212 344 ft 21 kts 70°
2026-04-16 12:51 50.03441 8.53414 347 ft 20 kts 70°
2026-04-16 12:51 50.03488 8.53608 350 ft 18 kts 70°
2026-04-16 12:52 50.03534 8.53801 349 ft 20 kts 70°
2026-04-16 12:52 50.03585 8.54015 348 ft 21 kts 70°
2026-04-16 12:52 50.03638 8.54237 346 ft 23 kts 70°
2026-04-16 12:52 50.03697 8.54483 345 ft 24 kts 69°
2026-04-16 12:53 50.03758 8.54732 348 ft 23 kts 69°
2026-04-16 12:53 50.03810 8.54955 351 ft 22 kts 70°
2026-04-16 12:53 50.03860 8.55170 355 ft 21 kts 70°
2026-04-16 12:53 50.03911 8.55383 356 ft 21 kts 69°
2026-04-16 12:54 50.03962 8.55595 356 ft 21 kts 69°
2026-04-16 12:54 50.04014 8.55810 355 ft 22 kts 70°
2026-04-16 12:54 50.04046 8.55933 358 ft 10 kts 58°
2026-04-16 12:54 50.04100 8.55962 360 ft 8 kts 349°
2026-04-16 12:55 50.04153 8.55937 361 ft 7 kts 342°
2026-04-16 12:55 50.04200 8.55920 362 ft 6 kts
2026-04-16 12:55 50.04233 8.55942 364 ft 5 kts 26°
2026-04-16 12:55 50.04264 8.55961 365 ft 4 kts 14°
2026-04-16 12:56 50.04287 8.55958 366 ft 2 kts 343°
2026-04-16 12:56 50.04312 8.55946 367 ft 4 kts 343°
2026-04-16 12:56 50.04353 8.55926 368 ft 7 kts 343°
2026-04-16 12:56 50.04420 8.55908 369 ft 11 kts
2026-04-16 12:57 50.04508 8.55946 371 ft 13 kts 17°
2026-04-16 12:57 50.04554 8.55986 371 ft 0 kts 52°
2026-04-16 12:57 50.04557 8.55993 371 ft 1 kts 60°
2026-04-16 12:57 50.04565 8.56018 371 ft 3 kts 66°
2026-04-16 12:58 50.04577 8.56061 371 ft 5 kts 68°
2026-04-16 12:58 50.04584 8.56089 371 ft 0 kts 69°
2026-04-16 12:58 50.04585 8.56092 371 ft 0 kts 69°
2026-04-16 12:59 50.04589 8.56111 371 ft 2 kts 69°
2026-04-16 12:59 50.04593 8.56125 371 ft 2 kts 69°
2026-04-16 12:59 50.04597 8.56141 371 ft 0 kts 69°
2026-04-16 13:00 50.04599 8.56151 371 ft 0 kts 69°
2026-04-16 13:01 50.04599 8.56152 371 ft 0 kts 69°
2026-04-16 13:01 50.04603 8.56167 371 ft 2 kts 69°
2026-04-16 13:01 50.04611 8.56199 371 ft 4 kts 69°
2026-04-16 13:01 50.04623 8.56248 371 ft 5 kts 69°
2026-04-16 13:02 50.04625 8.56252 371 ft 0 kts 69°
2026-04-16 13:02 50.04626 8.56255 371 ft 0 kts 60°
2026-04-16 13:02 50.04630 8.56258 371 ft 0 kts 31°
2026-04-16 13:02 50.04636 8.56257 371 ft 1 kts 347°
2026-04-16 13:03 50.04646 8.56243 371 ft 2 kts 313°
2026-04-16 13:03 50.04653 8.56225 371 ft 0 kts 299°
2026-04-16 13:04 50.04654 8.56221 371 ft 1 kts 299°
2026-04-16 13:04 50.04661 8.56202 371 ft 2 kts 301°
2026-04-16 13:04 50.04678 8.56179 371 ft 3 kts 325°
2026-04-16 13:04 50.04689 8.56169 371 ft 0 kts 329°
2026-04-16 13:05 50.04692 8.56167 371 ft 0 kts 333°
2026-04-16 13:05 50.04696 8.56164 371 ft 0 kts 335°
2026-04-16 13:05 50.04700 8.56161 371 ft 0 kts 336°
2026-04-16 13:06 50.04694 8.56165 371 ft 5 kts 341°
2026-04-16 13:07 50.04683 8.56170 371 ft 1 kts 338°
2026-04-16 13:07 50.04697 8.56161 371 ft 2 kts 339°
2026-04-16 13:07 50.04699 8.56160 371 ft 0 kts 339°